Черноморск

Украина / Одесская область     46°18′12″N   30°39′51″E
темп.,
°C
ветер,
м/с
пор.,
м/с
влажн.,
%
обл.,
%
осадки,
мм/ч
давл.,
гПа
погр.,
м
2 марта, вт
вт200:00+3с6780100 0.1 1032724
03:00+3с687897 0.1 1033585
06:00+3ссз457148 0.0 1032655
09:00+2ссз457367 0.0 1032345
12:00+3зюз33671 0.0 1031343
15:00+5зюз567236 0.0 1029254
18:00+6зюз797166 0.0 1026179
21:00+6з797360 0.0 1025126
3 марта, ср
ср300:00+6сз7117633 0.0 1025182
03:00+5с8128218 0.0 1026550
06:00+4с81178100 0.0 1027731
09:00+4ссз7117178 0.1 1029403
12:00+5с46700 0.0 1029184
15:00+6с22680 0.0 1029146
18:00+6юз23650 0.0 1028130
21:00+6зсз236750 0.0 102924
4 марта, чт
чт400:00+5юз457327 0.0 102846
03:00+5юз557314 0.0 102666
06:00+4юз57850 0.0 1024122
09:00+5юз79880 0.0 1023193
12:00+5ююз912860 0.0 1020263
15:00+6ююз1115850 0.0 1018296
18:00+6ююз1115850 0.0 1015258
21:00+6ююз1115870 0.0 1015218
5 марта, пт
пт500:00+6юз711890 0.0 1014159
03:00+6юз56882 0.0 101469
06:00+6ююз568538 0.0 101251
09:00+6ююз558469 0.0 101252
12:00+7юз5677100 0.0 101175
15:00+7ююз677698 0.0 101093
18:00+8ююз677170 0.0 101049
21:00+8сз236735 0.0 101128
6 марта, сб
сб600:00+7св787632 0.0 101279
03:00+6с7108866 0.0 1013160
06:00+5с71090100 0.0 1015245
09:00+2с111391100 0.1 1018583
12:00+3ссв91162100 0.0 10201080
15:00+4с81054100 0.0 10211365
18:00+3с81051100 0.0 10231530
21:00+3с7104967 0.0 10261562